Location: Keppel Henge
(44.7900°N, 80.9447°W)
Time: 04:29:44
(UTC-05:00)

STRAND 1 - Visible Passes

Search period start: 19 February 2018 00:00
Search period end: 01 March 2018 00:00
Orbit: 769 x 781 km, 98.5° (Epoch: 18 February)

Date Brightness Start Highest point End Pass type
(mag) Time Alt. Az. Time Alt. Az. Time Alt. Az.
19 Feb ? 06:43:15 10° SSE 06:48:19 64° ENE 06:53:26 10° N visible
19 Feb ? 18:52:46 10° NE 18:56:24 19° E 19:00:01 10° SE visible
19 Feb ? 20:30:53 10° N 20:35:57 58° WNW 20:41:00 10° SSW visible
20 Feb ? 06:10:02 10° SE 06:14:36 33° ENE 06:19:11 10° N visible
20 Feb ? 19:56:54 10° NNE 20:02:05 72° ESE 20:07:13 10° S visible
20 Feb ? 21:37:23 10° NNW 21:40:41 17° WNW 21:43:58 10° W visible
21 Feb ? 05:37:39 10° ESE 05:41:02 18° ENE 05:44:27 10° NNE visible
21 Feb ? 19:23:18 10° NNE 19:28:03 36° E 19:32:45 10° SSE visible
21 Feb ? 21:02:36 10° N 21:07:08 32° WNW 21:11:38 10° SW visible
22 Feb ? 06:40:45 10° SSE 06:45:47 61° ENE 06:50:53 10° N visible
22 Feb ? 18:50:20 10° NE 18:53:50 18° E 18:57:18 10° SE visible
22 Feb ? 20:28:20 10° N 20:33:25 61° WNW 20:38:29 10° SSW visible
23 Feb ? 06:07:35 10° SE 06:12:05 32° ENE 06:16:36 10° N visible
23 Feb ? 19:54:23 10° NNE 19:59:32 68° ESE 20:04:40 10° S visible
23 Feb ? 21:34:45 10° NNW 21:38:10 18° WNW 21:41:35 10° WSW visible
24 Feb ? 05:35:16 10° E 05:38:32 17° ENE 05:41:49 10° NNE visible
24 Feb ? 19:20:49 10° NNE 19:25:29 34° E 19:30:08 10° SSE visible
24 Feb ? 21:00:01 10° N 21:04:37 33° WNW 21:09:11 10° SW visible
25 Feb ? 18:47:55 10° NE 18:51:16 17° E 18:54:34 10° SE visible
25 Feb ? 20:25:46 10° N 20:30:54 64° WNW 20:35:58 10° SSW visible
26 Feb ? 06:05:08 10° SE 06:09:34 30° ENE 06:14:02 10° N visible
26 Feb ? 19:51:51 10° NNE 19:57:00 65° ESE 20:02:06 10° S visible
26 Feb ? 21:32:07 10° NNW 21:35:40 19° WNW 21:39:11 10° WSW visible
27 Feb ? 05:32:54 10° E 05:36:02 17° ENE 05:39:11 10° NNE visible
27 Feb ? 19:18:19 10° NNE 19:22:56 32° E 19:27:30 10° SSE visible
27 Feb ? 20:57:27 10° N 21:02:06 35° WNW 21:06:43 10° SW visible
28 Feb ? 18:45:31 10° NE 18:48:41 16° E 18:51:50 10° SE visible
28 Feb ? 20:23:13 10° N 20:28:22 68° WNW 20:33:27 10° SSW visible
28 Feb ? 22:05:36 10° NW 22:06:34 10° NW 22:07:31 10° WNW visible
